Location: Vancouver
(49.2500°N, 123.1330°W)
Time: 02:24:42
(UTC-08:00)

Transit 2A Rocket - Visible Passes

Search period start: 26 January 2015 00:00
Search period end: 05 February 2015 00:00
Orbit: 585 x 922 km, 66.7° (Epoch: 24 January)

Date Brightness Start Highest point End Pass type
(mag) Time Alt. Az. Time Alt. Az. Time Alt. Az.
26 Jan 6.3 17:27:44 10° SSE 17:31:50 24° ESE 17:36:22 10° NE visible
26 Jan 5.4 19:08:42 10° SW 19:14:01 68° NW 19:17:27 25° NNE visible
26 Jan 7.2 20:53:28 10° WNW 20:57:26 22° NNW 20:57:26 22° NNW visible
27 Jan 5.1 18:26:44 10° SSW 18:32:02 82° SE 18:37:08 14° NE visible
27 Jan 6.8 20:10:40 10° W 20:15:27 28° NNW 20:17:07 25° N visible
27 Jan 8.1 21:56:51 10° NW 21:57:06 11° NW 21:57:06 11° NW visible
28 Jan 5.4 17:45:03 10° SSW 17:50:10 53° ESE 17:55:49 10° NE visible
28 Jan 6.4 19:28:03 10° WSW 19:33:09 37° NW 19:36:44 19° NNE visible
28 Jan 7.6 21:13:55 10° NW 21:16:42 16° NNW 21:16:42 16° NNW visible
29 Jan 5.9 18:45:38 10° WSW 18:50:56 52° NW 18:56:16 12° NNE visible
29 Jan 7.3 20:30:57 10° WNW 20:35:04 20° NNW 20:36:14 18° N visible
30 Jan 5.3 18:03:28 10° SW 18:08:51 76° NW 18:14:46 10° NE visible
30 Jan 7.1 19:48:02 10° W 19:52:36 24° NNW 19:55:42 16° NNE visible
30 Jan 7.9 21:34:14 10° NW 21:35:40 13° NNW 21:35:40 13° NNW visible
31 Jan 6.7 19:05:17 10° W 19:10:12 30° NW 19:15:08 11° NNE visible
31 Jan 7.5 20:51:24 10° NW 20:54:52 16° N 20:55:05 16° N visible
01 Feb 6.3 18:22:42 10° WSW 18:27:54 41° NW 18:33:31 10° NNE visible
01 Feb 7.4 20:08:27 10° WNW 20:12:17 17° NNW 20:14:27 15° N visible
01 Feb 8.0 21:53:56 10° NNW 21:54:24 11° NNW 21:54:24 11° NNW visible
02 Feb 5.8 17:40:21 10° SW 17:45:44 58° NW 17:51:35 10° NNE visible
02 Feb 7.2 19:25:29 10° WNW 19:29:45 21° NNW 19:33:48 11° NNE visible
02 Feb 7.7 21:11:30 10° NNW 21:13:45 14° N 21:13:45 14° N visible
03 Feb 7.0 18:42:36 10° W 18:47:18 26° NNW 18:52:12 10° NNE visible
03 Feb 7.5 20:28:50 10° NW 20:32:08 15° N 20:33:04 14° N visible
03 Feb 8.2 22:12:59 10° NNW 22:13:01 10° NNW 22:13:01 10° NNW visible
04 Feb 6.6 17:59:53 10° W 18:04:55 33° NW 18:10:17 10° NNE visible
04 Feb 7.5 19:45:57 10° NW 19:49:32 16° NNW 19:52:21 12° NNE visible
04 Feb 7.8 21:30:54 10° NNW 21:32:18 14° NNW 21:32:18 14° NNW visible
